Weather in Goris

Armenia     39˚30′18″N   46˚20′39″E
temp.,
°C
wind,
m/s
gust,
m/s
humid.,
%
clouds,
%
prec.,
mm/h
press.,
hPa
HPBL,
m
2 december, wed
wed201:00−2˚w45720 0.0 102683
04:00−2˚w55710 0.0 102687
07:00−2˚w44710 0.0 102660
10:00+1˚w23560 0.0 1026173
13:00+5˚ssw02480 0.0 1024537
16:00+3˚se12610 0.0 1024305
19:00−2˚wnw11830 0.0 102521
22:00−2˚wnw11790 0.0 102621
3 december, thu
thu301:00−2˚wnw11740 0.0 102722
04:00−3˚wnw11730 0.0 102721
07:00−3˚nw11720 0.0 102821
10:00ese11620 0.0 1029153
13:00+2˚ese21620 0.0 1027413
16:00ese21815 0.0 1026225
19:00−2˚ese019543 0.0 102872
22:00−3˚ese009360 0.0 102849
4 december, fri
fri401:00−3˚w018855 0.0 102849
04:00−4˚wnw118244 0.0 102829
07:00−4˚wnw11792 0.0 102721
10:00−2˚ese11661 0.0 1028194
13:00+1˚ese215912 0.0 1026522
16:00ese228024 0.0 1024281
19:00−2˚se119574 0.0 1026109
22:00−3˚sse119276 0.1 102678
5 december, sat
sat501:00−4˚w118950 0.0 102642
04:00−4˚wnw118326 0.0 102521
07:00−4˚wsw00820 0.0 102539
10:00−2˚ese10665 0.0 1025200
13:00+1˚ese216632 0.0 1023531
16:00−1˚ese228948 0.0 1022239
19:00−2˚ese229693 0.1 1023167
22:00−3˚ese119496 0.4 1024166
6 december, sun
sun601:00−3˚e119498 0.1 1025148
04:00−4˚nne019193 0.1 102554
07:00−4˚e119680 0.3 102564
10:00−3˚ese219088 0.8 1026226
13:00−2˚ese3391100 1.0 1025373
16:00−4˚ese2394100 1.4 1024296
19:00−4˚se2296100 0.4 1026236
22:00−6˚se119698 0.6 1027153